Location: Marcé
(47.5801°N, 0.3280°W)
Time: 16:08:08
(UTC+02:00)

ACS3 Solar Sail - Pass Details

Date: 26 June 2024
Orbit: 992 x 1023 km, 97.4° (Epoch: 11 July)

Event Time Altitude Azimuth Distance (km) Brightness Sun altitude
Exits shadow 23:49:30 10° 183° (S) 2,738 6.7 -12.9°
Maximum altitude 23:55:32 57° 262° (W) 1,162 5.3 -13.4°
Drops below altitude 10° 00:01:40 10° 340° (NNW) 2,767 8.6 -13.9°
Sets 00:04:13 0° 345° (NNW) 3,721 9.5 -14.1°
